| time (UTC) | temp F | wind direction | speed MPH | gust MPH | rain 1hr in | rain 24hr in | rain mn in | humidity % | barometer mb |
| 20260507093959 | 44 | 4 | 3.0 | 7.0 | 0.00 | 0.00 | 0.00 | 86 | 1014.5 |
| 20260507093456 | 45 | 96 | 3.0 | 10.0 | 0.00 | 0.00 | 0.00 | 84 | 1014.7 |
| 20260507092955 | 45 | 78 | 0.0 | 7.0 | 0.00 | 0.00 | 0.00 | 83 | 1014.7 |
| 20260507092451 | 45 | 39 | 3.0 | 10.0 | 0.00 | 0.00 | 0.00 | 83 | 1014.5 |
| 20260507091947 | 45 | 98 | 2.0 | 10.0 | 0.00 | 0.00 | 0.00 | 83 | 1014.4 |
| 20260507091443 | 44 | 90 | 5.0 | 12.0 | 0.00 | 0.00 | 0.00 | 86 | 1014.4 |
| 20260507090939 | 44 | 73 | 5.0 | 9.0 | 0.00 | 0.00 | 0.00 | 85 | 1014.4 |
| 20260507090430 | 44 | 78 | 3.0 | 5.0 | 0.00 | 0.00 | 0.00 | 85 | 1014.5 |
| 20260507085927 | 44 | 101 | 10.0 | 10.0 | 0.00 | 0.00 | 0.00 | 86 | 1014.3 |
| 20260507085424 | 45 | 104 | 7.0 | 11.0 | 0.00 | 0.00 | 0.00 | 84 | 1014.3 |
| 20260507084921 | 45 | 19 | 6.0 | 9.0 | 0.00 | 0.00 | 0.00 | 84 | 1014.7 |
| 20260507084418 | 45 | 30 | 7.0 | 8.0 | 0.00 | 0.00 | 0.00 | 83 | 1014.8 |
| 20260507083915 | 46 | 99 | 5.0 | 5.0 | 0.00 | 0.00 | 0.00 | 81 | 1014.9 |
| 20260507083411 | 46 | 29 | 5.0 | 7.0 | 0.00 | 0.00 | 0.00 | 79 | 1014.7 |
| 20260507082908 | 46 | 14 | 4.0 | 7.0 | 0.00 | 0.00 | 0.00 | 79 | 1014.8 |
| 20260507082404 | 46 | 75 | 1.0 | 7.0 | 0.00 | 0.00 | 0.00 | 79 | 1014.7 |
| 20260507081901 | 47 | 98 | 0.0 | 8.0 | 0.00 | 0.00 | 0.00 | 79 | 1014.7 |
| 20260507081357 | 48 | 45 | 2.0 | 5.0 | 0.00 | 0.00 | 0.00 | 75 | 1014.5 |
| 20260507080854 | 48 | 359 | 5.0 | 9.0 | 0.00 | 0.00 | 0.00 | 71 | 1014.3 |
| 20260507080350 | 48 | 24 | 5.0 | 10.0 | 0.00 | 0.00 | 0.00 | 73 | 1014.4 |
| 20260507075846 | 50 | 18 | 5.0 | 9.0 | 0.00 | 0.00 | 0.00 | 67 | 1014.5 |
| 20260507075342 | 50 | 343 | 2.0 | 5.0 | 0.02 | 0.00 | 0.00 | 66 | 1014.7 |
| 20260507074838 | 50 | 354 | 0.0 | 3.0 | 0.00 | 0.00 | 0.00 | 64 | 1014.7 |
| 20260507074336 | 51 | 66 | 0.0 | 2.0 | 0.00 | 0.00 | 0.00 | 59 | 1014.8 |
| 20260507073833 | 51 | 211 | 3.0 | 5.0 | 0.00 | 0.00 | 0.00 | 58 | 1014.4 |
| 20260507073329 | 51 | 145 | 3.0 | 8.0 | 0.00 | 0.00 | 0.00 | 58 | 1014.2 |
| 20260507072827 | 51 | 211 | 4.0 | 8.0 | 0.00 | 0.00 | 0.00 | 58 | 1013.9 |
| 20260507072324 | 52 | 156 | 7.0 | 12.0 | 0.00 | 0.00 | 0.00 | 58 | 1013.7 |
| 20260507071821 | 51 | 195 | 8.0 | 15.0 | 0.00 | 0.00 | 0.00 | 58 | 1013.4 |
| 20260507071318 | 51 | 153 | 6.0 | 15.0 | 0.00 | 0.00 | 0.00 | 59 | 1013.6 |
| 20260507070814 | 51 | 160 | 8.0 | 15.0 | 0.00 | 0.00 | 0.00 | 59 | 1014.1 |
| 20260507070312 | 51 | 188 | 5.0 | 11.0 | 0.00 | 0.00 | 0.00 | 60 | 1013.9 |
| 20260507065809 | 51 | 172 | 6.0 | 15.0 | 0.00 | 0.00 | 0.00 | 59 | 1014.3 |
| 20260507065306 | 52 | 150 | 6.0 | 13.0 | 0.00 | 0.00 | 0.00 | 57 | 1014.2 |
| 20260507064802 | 52 | 147 | 9.0 | 15.0 | 0.00 | 0.00 | 0.00 | 56 | 1014.2 |
| 20260507064301 | 52 | 166 | 6.0 | 9.0 | 0.00 | 0.00 | 0.00 | 57 | 1014.1 |
| 20260507063759 | 52 | 180 | 3.0 | 11.0 | 0.00 | 0.00 | 0.00 | 56 | 1013.9 |
| 20260507063255 | 52 | 140 | 19.0 | 21.0 | 0.00 | 0.00 | 0.00 | 56 | 1014.1 |
| 20260507062752 | 52 | 154 | 10.0 | 19.0 | 0.00 | 0.00 | 0.00 | 56 | 1014.1 |
| 20260507062249 | 53 | 157 | 12.0 | 20.0 | 0.00 | 0.00 | 0.00 | 56 | 1014.2 |
| 20260507061747 | 52 | 153 | 6.0 | 11.0 | 0.00 | 0.00 | 0.00 | 56 | 1014.3 |
| 20260507061244 | 52 | 159 | 9.0 | 14.0 | 0.00 | 0.00 | 0.00 | 56 | 1014.4 |
| 20260507060743 | 53 | 161 | 9.0 | 22.0 | 0.00 | 0.00 | 0.00 | 55 | 1014.3 |
| 20260507060239 | 52 | 168 | 8.0 | 15.0 | 0.00 | 0.00 | 0.00 | 55 | 1014.4 |
| 20260507055735 | 53 | 179 | 4.0 | 17.0 | 0.00 | 0.00 | 0.00 | 55 | 1014.4 |
| 20260507055231 | 53 | 127 | 13.0 | 16.0 | 0.00 | 0.00 | 0.00 | 55 | 1014.4 |
| 20260507054727 | 52 | 180 | 1.0 | 14.0 | 0.00 | 0.00 | 0.00 | 55 | 1014.7 |
| 20260507054224 | 52 | 177 | 7.0 | 18.0 | 0.00 | 0.00 | 0.00 | 55 | 1014.5 |
| 20260507053722 | 52 | 173 | 5.0 | 16.0 | 0.00 | 0.00 | 0.00 | 55 | 1014.5 |
| 20260507053219 | 52 | 200 | 9.0 | 14.0 | 0.00 | 0.00 | 0.00 | 55 | 1014.5 |
| 20260507052718 | 52 | 121 | 12.0 | 14.0 | 0.00 | 0.00 | 0.00 | 55 | 1014.5 |
| 20260507052214 | 52 | 152 | 10.0 | 13.0 | 0.00 | 0.00 | 0.00 | 54 | 1014.5 |
| 20260507051712 | 52 | 177 | 2.0 | 7.0 | 0.00 | 0.00 | 0.00 | 55 | 1014.8 |
| 20260507051209 | 52 | 162 | 6.0 | 12.0 | 0.00 | 0.00 | 0.00 | 54 | 1014.9 |
| 20260507050705 | 52 | 189 | 4.0 | 12.0 | 0.00 | 0.00 | 0.00 | 54 | 1014.8 |
| 20260507050202 | 52 | 171 | 5.0 | 11.0 | 0.00 | 0.00 | 0.00 | 55 | 1014.9 |
| 20260507045659 | 52 | 199 | 10.0 | 10.0 | 0.00 | 0.00 | 0.00 | 54 | 1015.0 |
| 20260507045156 | 51 | 179 | 4.0 | 9.0 | 0.00 | 0.00 | 0.00 | 55 | 1014.9 |
| 20260507044652 | 51 | 178 | 4.0 | 8.0 | 0.00 | 0.00 | 0.00 | 56 | 1015.0 |
| 20260507044149 | 51 | 200 | 7.0 | 8.0 | 0.00 | 0.00 | 0.00 | 56 | 1015.0 |
| 20260507043645 | 51 | 158 | 9.0 | 11.0 | 0.00 | 0.00 | 0.00 | 55 | 1015.1 |
| 20260507043142 | 51 | 180 | 2.0 | 6.0 | 0.00 | 0.00 | 0.00 | 55 | 1015.3 |
| 20260507042638 | 50 | 155 | 4.0 | 4.0 | 0.00 | 0.00 | 0.00 | 56 | 1015.3 |
| 20260507042132 | 50 | 144 | 2.0 | 3.0 | 0.00 | 0.00 | 0.00 | 55 | 1015.1 |
| 20260507041630 | 51 | 213 | 2.0 | 3.0 | 0.00 | 0.00 | 0.00 | 55 | 1015.1 |
| 20260507041127 | 50 | 165 | 2.0 | 5.0 | 0.00 | 0.00 | 0.00 | 56 | 1015.3 |
| 20260507040625 | 50 | 154 | 3.0 | 7.0 | 0.00 | 0.00 | 0.00 | 55 | 1015.3 |
| 20260507040121 | 50 | 142 | 5.0 | 6.0 | 0.00 | 0.00 | 0.00 | 56 | 1015.3 |
| 20260507035617 | 50 | 155 | 4.0 | 8.0 | 0.00 | 0.00 | 0.00 | 55 | 1015.4 |
| 20260507035113 | 50 | 156 | 4.0 | 6.0 | 0.00 | 0.00 | 0.00 | 56 | 1015.5 |
| 20260507034610 | 50 | 148 | 4.0 | 6.0 | 0.00 | 0.00 | 0.00 | 55 | 1015.6 |
| 20260507034107 | 50 | 175 | 2.0 | 7.0 | 0.00 | 0.00 | 0.00 | 54 | 1015.6 |
| 20260507033606 | 50 | 161 | 3.0 | 7.0 | 0.00 | 0.00 | 0.00 | 54 | 1015.3 |
| 20260507033103 | 50 | 126 | 6.0 | 6.0 | 0.00 | 0.00 | 0.00 | 55 | 1015.6 |
| 20260507032600 | 50 | 148 | 4.0 | 5.0 | 0.00 | 0.00 | 0.00 | 54 | 1015.5 |
| 20260507032056 | 50 | 151 | 3.0 | 4.0 | 0.00 | 0.00 | 0.00 | 53 | 1015.5 |
| 20260507031552 | 50 | 148 | 3.0 | 5.0 | 0.00 | 0.00 | 0.00 | 54 | 1015.4 |
| 20260507031049 | 49 | 141 | 4.0 | 5.0 | 0.00 | 0.00 | 0.00 | 55 | 1015.3 |
| 20260507030546 | 48 | 117 | 2.0 | 3.0 | 0.00 | 0.00 | 0.00 | 57 | 1015.3 |
| 20260507030044 | 50 | 90 | 2.0 | 5.0 | 0.00 | 0.00 | 0.00 | 56 | 1015.3 |
| 20260507025541 | 50 | 83 | 1.0 | 3.0 | 0.00 | 0.00 | 0.00 | 55 | 1015.4 |
| 20260507025038 | 49 | 104 | 3.0 | 4.0 | 0.00 | 0.00 | 0.00 | 55 | 1015.4 |
| 20260507024536 | 50 | 107 | 3.0 | 4.0 | 0.00 | 0.00 | 0.00 | 54 | 1015.4 |
| 20260507024032 | 50 | 105 | 3.0 | 3.0 | 0.00 | 0.00 | 0.00 | 53 | 1015.5 |
| 20260507023527 | 51 | 117 | 3.0 | 4.0 | 0.00 | 0.00 | 0.00 | 51 | 1015.3 |
| 20260507023021 | 51 | 157 | 1.0 | 4.0 | 0.00 | 0.00 | 0.00 | 51 | 1015.5 |
| 20260507022517 | 51 | 146 | 2.0 | 4.0 | 0.00 | 0.00 | 0.00 | 51 | 1015.7 |
| 20260507022012 | 51 | 141 | 3.0 | 5.0 | 0.00 | 0.00 | 0.00 | 51 | 1015.6 |
| 20260507021508 | 51 | 146 | 2.0 | 3.0 | 0.00 | 0.00 | 0.00 | 50 | 1015.5 |
| 20260507021005 | 51 | 148 | 3.0 | 3.0 | 0.00 | 0.00 | 0.00 | 52 | 1015.6 |
| 20260507020503 | 52 | 180 | 2.0 | 3.0 | 0.00 | 0.00 | 0.00 | 50 | 1015.5 |
| 20260507015959 | 52 | 184 | 2.0 | 5.0 | 0.00 | 0.00 | 0.00 | 50 | 1015.6 |
| 20260507015458 | 52 | 148 | 1.0 | 3.0 | 0.00 | 0.00 | 0.00 | 50 | 1015.7 |
| 20260507014954 | 52 | 251 | 5.0 | 5.0 | 0.00 | 0.00 | 0.00 | 49 | 1015.7 |
| 20260507014451 | 52 | 157 | 1.0 | 5.0 | 0.00 | 0.00 | 0.00 | 49 | 1016.0 |
| 20260507013947 | 52 | 192 | 2.0 | 5.0 | 0.00 | 0.00 | 0.00 | 50 | 1015.6 |
| 20260507013444 | 52 | 190 | 2.0 | 5.0 | 0.00 | 0.00 | 0.00 | 50 | 1015.9 |
| 20260507012941 | 52 | 215 | 3.0 | 7.0 | 0.00 | 0.00 | 0.00 | 49 | 1015.7 |
| 20260507012437 | 53 | 234 | 7.0 | 12.0 | 0.00 | 0.00 | 0.00 | 48 | 1015.6 |
| 20260507011928 | 55 | 202 | 6.0 | 10.0 | 0.00 | 0.00 | 0.00 | 45 | 1015.9 |
| 20260507011425 | 55 | 233 | 5.0 | 11.0 | 0.00 | 0.00 | 0.00 | 44 | 1015.7 |
| 20260507010920 | 56 | 221 | 4.0 | 10.0 | 0.00 | 0.00 | 0.00 | 44 | 1015.7 |
| 20260507010415 | 56 | 210 | 5.0 | 8.0 | 0.00 | 0.00 | 0.00 | 43 | 1015.7 |
| 20260507005913 | 55 | 197 | 5.0 | 8.0 | 0.00 | 0.00 | 0.00 | 45 | 1015.6 |
| 20260507005410 | 56 | 182 | 4.0 | 10.0 | 0.00 | 0.00 | 0.00 | 43 | 1015.6 |
| 20260507004906 | 57 | 223 | 4.0 | 5.0 | 0.00 | 0.00 | 0.00 | 45 | 1015.6 |
| 20260507004403 | 55 | 201 | 3.0 | 7.0 | 0.00 | 0.00 | 0.00 | 46 | 1015.6 |
| 20260507003900 | 55 | 149 | 3.0 | 4.0 | 0.00 | 0.00 | 0.00 | 47 | 1015.7 |
| 20260507003355 | 53 | 298 | 3.0 | 5.0 | 0.00 | 0.00 | 0.00 | 46 | 1015.6 |
| 20260507002851 | 55 | 297 | 3.0 | 5.0 | 0.00 | 0.00 | 0.00 | 45 | 1015.6 |
| 20260507002347 | 54 | 270 | 2.0 | 3.0 | 0.00 | 0.00 | 0.00 | 49 | 1015.6 |
| 20260507001844 | 53 | 342 | 0.0 | 5.0 | 0.00 | 0.00 | 0.00 | 49 | 1015.9 |
| 20260507001341 | 53 | 323 | 2.0 | 5.0 | 0.00 | 0.00 | 0.00 | 50 | 1015.7 |
| 20260507000838 | 53 | 245 | 5.0 | 5.0 | 0.00 | 0.00 | 0.00 | 48 | 1015.7 |
| 20260507000335 | 54 | 319 | 4.0 | 6.0 | 0.00 | 0.00 | 0.00 | 47 | 1015.7 |
| 20260506235830 | 54 | 75 | 0.0 | 5.0 | 0.00 | 0.00 | 0.00 | 47 | 1015.7 |
| 20260506235327 | 55 | 270 | 2.0 | 7.0 | 0.00 | 0.00 | 0.00 | 46 | 1015.9 |
| 20260506234823 | 57 | 252 | 7.0 | 7.0 | 0.00 | 0.00 | 0.00 | 43 | 1015.6 |
| 20260506234321 | 56 | 251 | 4.0 | 5.0 | 0.00 | 0.00 | 0.00 | 42 | 1015.6 |
| 20260506233818 | 53 | 5 | 0.0 | 4.0 | 0.00 | 0.00 | 0.00 | 45 | 1015.6 |
| 20260506233314 | 55 | 295 | 9.0 | 14.0 | 0.00 | 0.00 | 0.00 | 42 | 1015.6 |
| 20260506232811 | 57 | 350 | 3.0 | 6.0 | 0.00 | 0.00 | 0.00 | 47 | 1015.6 |
| 20260506232306 | 55 | 259 | 4.0 | 9.0 | 0.00 | 0.00 | 0.00 | 46 | 1015.9 |
| 20260506231803 | 55 | 289 | 4.0 | 8.0 | 0.00 | 0.00 | 0.00 | 45 | 1015.7 |
| 20260506231301 | 55 | 246 | 5.0 | 8.0 | 0.00 | 0.00 | 0.00 | 42 | 1015.9 |
| 20260506230758 | 55 | 278 | 8.0 | 8.0 | 0.00 | 0.00 | 0.00 | 45 | 1015.7 |
| 20260506230255 | 55 | 263 | 5.0 | 9.0 | 0.00 | 0.00 | 0.00 | 43 | 1015.5 |
| 20260506225751 | 55 | 259 | 3.0 | 7.0 | 0.00 | 0.00 | 0.00 | 44 | 1015.7 |
| 20260506225248 | 55 | 218 | 15.0 | 15.0 | 0.00 | 0.00 | 0.00 | 42 | 1015.7 |
| 20260506224744 | 55 | 278 | 2.0 | 5.0 | 0.00 | 0.00 | 0.00 | 42 | 1015.6 |
| 20260506224242 | 56 | 208 | 5.0 | 9.0 | 0.00 | 0.00 | 0.00 | 42 | 1015.7 |
| 20260506223732 | 57 | 229 | 3.0 | 7.0 | 0.00 | 0.00 | 0.00 | 41 | 1015.6 |
| 20260506223228 | 54 | 324 | 2.0 | 5.0 | 0.00 | 0.00 | 0.00 | 41 | 1015.7 |
| 20260506222726 | 55 | 38 | 2.0 | 4.0 | 0.00 | 0.00 | 0.00 | 42 | 1015.7 |
| 20260506222221 | 56 | 319 | 4.0 | 6.0 | 0.00 | 0.00 | 0.00 | 44 | 1016.0 |
| 20260506221719 | 54 | 348 | 4.0 | 8.0 | 0.00 | 0.00 | 0.00 | 42 | 1015.7 |
| 20260506221217 | 56 | 0 | 2.0 | 7.0 | 0.00 | 0.00 | 0.00 | 41 | 1016.1 |
| 20260506220714 | 55 | 0 | 5.0 | 8.0 | 0.00 | 0.00 | 0.00 | 40 | 1016.1 |
| 20260506220208 | 56 | 326 | 3.0 | 9.0 | 0.00 | 0.00 | 0.00 | 42 | 1016.2 |
| 20260506215705 | 54 | 0 | 2.0 | 5.0 | 0.00 | 0.00 | 0.00 | 41 | 1016.2 |
| 20260506215201 | 54 | 276 | 6.0 | 8.0 | 0.00 | 0.00 | 0.00 | 40 | 1016.2 |
| 20260506214658 | 54 | 246 | 0.0 | 5.0 | 0.00 | 0.00 | 0.00 | 41 | 1016.5 |
| 20260506214155 | 53 | 216 | 0.0 | 11.0 | 0.00 | 0.00 | 0.00 | 42 | 1016.2 |
| 20260506213654 | 54 | 281 | 3.0 | 12.0 | 0.00 | 0.00 | 0.00 | 42 | 1016.4 |
| 20260506213150 | 53 | 227 | 10.0 | 14.0 | 0.00 | 0.00 | 0.00 | 40 | 1016.4 |
| 20260506212647 | 53 | 262 | 7.0 | 12.0 | 0.00 | 0.00 | 0.00 | 41 | 1016.4 |
| 20260506212142 | 53 | 223 | 4.0 | 10.0 | 0.00 | 0.00 | 0.00 | 42 | 1016.2 |
| 20260506211638 | 53 | 238 | 9.0 | 13.0 | 0.00 | 0.00 | 0.00 | 40 | 1016.2 |
| 20260506211135 | 52 | 163 | 5.0 | 9.0 | 0.00 | 0.00 | 0.00 | 40 | 1016.2 |
| 20260506210632 | 52 | 202 | 3.0 | 8.0 | 0.00 | 0.00 | 0.00 | 40 | 1016.6 |
| 20260506210128 | 53 | 345 | 5.0 | 9.0 | 0.00 | 0.00 | 0.00 | 40 | 1016.5 |
| 20260506205626 | 53 | 312 | 4.0 | 10.0 | 0.00 | 0.00 | 0.00 | 39 | 1016.5 |
| 20260506205120 | 53 | 282 | 4.0 | 10.0 | 0.00 | 0.00 | 0.00 | 41 | 1016.5 |
| 20260506204619 | 52 | 306 | 3.0 | 15.0 | 0.00 | 0.00 | 0.00 | 44 | 1016.5 |
| 20260506204115 | 53 | 348 | 4.0 | 15.0 | 0.00 | 0.00 | 0.00 | 42 | 1016.4 |
| 20260506203614 | 53 | 259 | 5.0 | 12.0 | 0.00 | 0.00 | 0.00 | 41 | 1016.4 |
| 20260506203110 | 53 | 239 | 5.0 | 6.0 | 0.00 | 0.00 | 0.00 | 42 | 1016.5 |
| 20260506202608 | 53 | 282 | 3.0 | 9.0 | 0.00 | 0.00 | 0.00 | 41 | 1016.5 |
| 20260506202104 | 53 | 307 | 3.0 | 11.0 | 0.00 | 0.00 | 0.00 | 43 | 1016.2 |
| 20260506201601 | 52 | 285 | 3.0 | 10.0 | 0.00 | 0.00 | 0.00 | 42 | 1016.4 |
| 20260506201058 | 51 | 243 | 2.0 | 5.0 | 0.00 | 0.00 | 0.00 | 40 | 1016.5 |
| 20260506200554 | 51 | 204 | 6.0 | 15.0 | 0.00 | 0.00 | 0.00 | 39 | 1016.5 |
| 20260506200051 | 52 | 0 | 3.0 | 9.0 | 0.00 | 0.00 | 0.00 | 42 | 1016.4 |
| 20260506195547 | 50 | 289 | 4.0 | 7.0 | 0.00 | 0.00 | 0.00 | 42 | 1016.4 |
| 20260506195044 | 50 | 306 | 10.0 | 13.0 | 0.00 | 0.00 | 0.00 | 41 | 1016.5 |
| 20260506194543 | 50 | 312 | 8.0 | 15.0 | 0.00 | 0.00 | 0.00 | 40 | 1016.5 |
| 20260506194038 | 51 | 270 | 7.0 | 14.0 | 0.00 | 0.00 | 0.00 | 42 | 1016.5 |
| 20260506193536 | 51 | 318 | 3.0 | 11.0 | 0.00 | 0.00 | 0.00 | 42 | 1016.6 |
| 20260506193033 | 50 | 232 | 6.0 | 13.0 | 0.00 | 0.00 | 0.00 | 41 | 1016.5 |
| 20260506192529 | 50 | 278 | 5.0 | 12.0 | 0.00 | 0.00 | 0.00 | 42 | 1016.4 |
| 20260506192025 | 50 | 300 | 6.0 | 11.0 | 0.00 | 0.00 | 0.00 | 43 | 1016.5 |
| 20260506191522 | 50 | 284 | 8.0 | 10.0 | 0.00 | 0.00 | 0.00 | 43 | 1016.5 |
| 20260506191018 | 50 | 285 | 7.0 | 12.0 | 0.00 | 0.00 | 0.00 | 42 | 1016.5 |
| 20260506190515 | 50 | 333 | 3.0 | 14.0 | 0.00 | 0.00 | 0.00 | 42 | 1016.6 |
| 20260506190013 | 48 | 266 | 0.0 | 3.0 | 0.00 | 0.00 | 0.00 | 41 | 1016.7 |
| 20260506185510 | 48 | 276 | 10.0 | 13.0 | 0.00 | 0.00 | 0.00 | 43 | 1016.6 |
| 20260506185006 | 48 | 196 | 2.0 | 6.0 | 0.00 | 0.00 | 0.00 | 41 | 1016.8 |
| 20260506184504 | 48 | 279 | 3.0 | 13.0 | 0.00 | 0.00 | 0.00 | 44 | 1016.7 |
| 20260506184000 | 48 | 348 | 3.0 | 7.0 | 0.00 | 0.00 | 0.00 | 44 | 1016.8 |
| 20260506183455 | 49 | 286 | 5.0 | 13.0 | 0.00 | 0.00 | 0.00 | 45 | 1016.6 |
| 20260506182953 | 49 | 293 | 7.0 | 9.0 | 0.00 | 0.00 | 0.00 | 44 | 1016.7 |
| 20260506182449 | 48 | 187 | 1.0 | 4.0 | 0.00 | 0.00 | 0.00 | 39 | 1016.7 |
| 20260506181946 | 47 | 281 | 3.0 | 11.0 | 0.00 | 0.00 | 0.00 | 41 | 1017.0 |
| 20260506181444 | 48 | 233 | 3.0 | 7.0 | 0.00 | 0.00 | 0.00 | 41 | 1016.7 |
| 20260506180941 | 46 | 232 | 5.0 | 13.0 | 0.00 | 0.00 | 0.00 | 41 | 1016.6 |
| 20260506180438 | 47 | 233 | 3.0 | 8.0 | 0.00 | 0.00 | 0.00 | 43 | 1016.6 |
| 20260506175929 | 48 | 278 | 8.0 | 9.0 | 0.00 | 0.00 | 0.00 | 42 | 1016.6 |
| 20260506175426 | 47 | 344 | 0.0 | 4.0 | 0.00 | 0.00 | 0.00 | 38 | 1016.6 |
| 20260506174923 | 46 | 236 | 6.0 | 8.0 | 0.00 | 0.00 | 0.00 | 39 | 1016.6 |
| 20260506174421 | 46 | 245 | 11.0 | 11.0 | 0.00 | 0.00 | 0.00 | 40 | 1016.7 |
| 20260506173917 | 47 | 238 | 3.0 | 7.0 | 0.00 | 0.00 | 0.00 | 39 | 1016.6 |
| 20260506173414 | 45 | 288 | 2.0 | 10.0 | 0.00 | 0.00 | 0.00 | 38 | 1016.7 |
| 20260506172911 | 46 | 229 | 4.0 | 9.0 | 0.00 | 0.00 | 0.00 | 40 | 1016.7 |
| 20260506172408 | 47 | 279 | 6.0 | 8.0 | 0.00 | 0.00 | 0.00 | 36 | 1016.6 |
| 20260506171905 | 46 | 281 | 3.0 | 3.0 | 0.00 | 0.00 | 0.00 | 40 | 1016.6 |
| 20260506171402 | 44 | 180 | 4.0 | 9.0 | 0.00 | 0.00 | 0.00 | 37 | 1016.6 |
| 20260506170900 | 45 | 195 | 0.0 | 8.0 | 0.00 | 0.00 | 0.00 | 39 | 1016.5 |
| 20260506170355 | 45 | 78 | 0.0 | 5.0 | 0.00 | 0.00 | 0.00 | 35 | 1016.6 |
| 20260506165855 | 45 | 258 | 1.0 | 10.0 | 0.00 | 0.00 | 0.00 | 37 | 1016.6 |
| 20260506165352 | 45 | 233 | 3.0 | 5.0 | 0.00 | 0.00 | 0.00 | 37 | 1016.5 |
| 20260506164848 | 43 | 201 | 6.0 | 9.0 | 0.00 | 0.00 | 0.00 | 36 | 1016.5 |
| 20260506164345 | 44 | 220 | 0.0 | 3.0 | 0.00 | 0.00 | 0.00 | 33 | 1016.4 |
| 20260506163843 | 45 | 244 | 3.0 | 3.0 | 0.00 | 0.00 | 0.00 | 36 | 1016.4 |
| 20260506163337 | 42 | 244 | 3.0 | 6.0 | 0.00 | 0.00 | 0.00 | 36 | 1016.5 |
| 20260506162833 | 43 | 180 | 3.0 | 3.0 | 0.00 | 0.00 | 0.00 | 35 | 1016.6 |
| 20260506162331 | 41 | 270 | 3.0 | 5.0 | 0.00 | 0.00 | 0.00 | 36 | 1016.7 |
| 20260506161828 | 42 | 219 | 3.0 | 5.0 | 0.00 | 0.00 | 0.00 | 37 | 1016.6 |
| 20260506161325 | 41 | 175 | 1.0 | 9.0 | 0.00 | 0.00 | 0.00 | 37 | 1016.7 |
| 20260506160818 | 42 | 132 | 4.0 | 4.0 | 0.00 | 0.00 | 0.00 | 40 | 1016.8 |
| 20260506160314 | 41 | 242 | 4.0 | 5.0 | 0.00 | 0.00 | 0.00 | 36 | 1016.8 |
| 20260506155813 | 42 | 90 | 3.0 | 5.0 | 0.00 | 0.00 | 0.00 | 39 | 1016.7 |
| 20260506155309 | 41 | 150 | 3.0 | 4.0 | 0.00 | 0.00 | 0.00 | 38 | 1016.7 |
| 20260506153421 | 38 | 163 | 4.0 | 9.0 | 0.00 | 0.00 | 0.00 | 46 | 1016.7 |
| 20260506152919 | 39 | 169 | 3.0 | 7.0 | 0.00 | 0.00 | 0.00 | 48 | 1016.7 |
| 20260506152415 | 40 | 202 | 5.0 | 5.0 | 0.00 | 0.00 | 0.00 | 49 | 1016.6 |
| 20260506151914 | 39 | 129 | 2.0 | 4.0 | 0.00 | 0.00 | 0.00 | 48 | 1016.7 |
| 20260506151410 | 38 | 135 | 2.0 | 5.0 | 0.00 | 0.00 | 0.00 | 52 | 1016.8 |
| 20260506150908 | 38 | 142 | 5.0 | 7.0 | 0.00 | 0.00 | 0.00 | 51 | 1016.7 |
| 20260506150404 | 37 | 96 | 1.0 | 3.0 | 0.00 | 0.00 | 0.00 | 50 | 1016.7 |
| 20260506145901 | 36 | 270 | 0.0 | 4.0 | 0.00 | 0.00 | 0.00 | 52 | 1016.5 |
| 20260506145357 | 36 | 213 | 2.0 | 5.0 | 0.00 | 0.00 | 0.00 | 53 | 1016.6 |
| 20260506144855 | 36 | 226 | 4.0 | 4.0 | 0.00 | 0.00 | 0.00 | 53 | 1016.6 |
| 20260506144351 | 37 | 180 | 1.0 | 5.0 | 0.00 | 0.00 | 0.00 | 52 | 1016.5 |
| 20260506143850 | 36 | 270 | 0.0 | 3.0 | 0.00 | 0.00 | 0.00 | 56 | 1016.5 |
| 20260506143346 | 36 | 211 | 2.0 | 3.0 | 0.00 | 0.00 | 0.00 | 58 | 1016.4 |
| 20260506142845 | 34 | 132 | 4.0 | 5.0 | 0.00 | 0.00 | 0.00 | 56 | 1016.2 |
| 20260506142342 | 35 | 142 | 4.0 | 6.0 | 0.00 | 0.00 | 0.00 | 57 | 1016.4 |
| 20260506141840 | 34 | 158 | 2.0 | 4.0 | 0.00 | 0.00 | 0.00 | 57 | 1016.2 |
| 20260506141338 | 34 | 107 | 0.0 | 2.0 | 0.00 | 0.00 | 0.00 | 57 | 1016.1 |
| 20260506140836 | 34 | 192 | 0.0 | 5.0 | 0.00 | 0.00 | 0.00 | 58 | 1016.2 |
| 20260506140332 | 33 | 83 | 1.0 | 2.0 | 0.00 | 0.00 | 0.00 | 59 | 1016.1 |
| 20260506135829 | 33 | 111 | 0.0 | 2.0 | 0.00 | 0.00 | 0.00 | 59 | 1016.1 |
| 20260506135326 | 31 | 90 | 3.0 | 3.0 | 0.00 | 0.00 | 0.00 | 62 | 1016.1 |
| 20260506134822 | 32 | 98 | 2.0 | 5.0 | 0.00 | 0.00 | 0.00 | 61 | 1016.0 |
| 20260506134319 | 31 | 78 | 3.0 | 4.0 | 0.00 | 0.00 | 0.00 | 66 | 1015.9 |
| 20260506133816 | 28 | 90 | 3.0 | 5.0 | 0.00 | 0.00 | 0.00 | 69 | 1015.6 |
| 20260506133313 | 27 | 95 | 2.0 | 4.0 | 0.00 | 0.00 | 0.00 | 71 | 1015.7 |
| 20260506132809 | 28 | 90 | 4.0 | 5.0 | 0.00 | 0.00 | 0.00 | 70 | 1015.6 |
| 20260506132307 | 27 | 83 | 5.0 | 6.0 | 0.00 | 0.00 | 0.00 | 71 | 1015.4 |
| 20260506131805 | 26 | 87 | 3.0 | 6.0 | 0.00 | 0.00 | 0.00 | 73 | 1015.5 |
| 20260506131300 | 25 | 90 | 1.0 | 6.0 | 0.00 | 0.00 | 0.00 | 74 | 1015.4 |
| 20260506130757 | 24 | 74 | 3.0 | 5.0 | 0.00 | 0.00 | 0.00 | 75 | 1015.4 |
| 20260506130254 | 24 | 90 | 1.0 | 4.0 | 0.00 | 0.00 | 0.00 | 75 | 1015.3 |
| 20260506125752 | 24 | 100 | 3.0 | 4.0 | 0.00 | 0.00 | 0.00 | 77 | 1015.1 |
| 20260506125250 | 22 | 90 | 0.0 | 3.0 | 0.00 | 0.00 | 0.00 | 78 | 1015.1 |
| 20260506124748 | 22 | 45 | 2.0 | 2.0 | 0.00 | 0.00 | 0.00 | 78 | 1015.1 |
| 20260506124245 | 22 | 5 | 3.0 | 3.0 | 0.00 | 0.00 | 0.00 | 79 | 1015.0 |
| 20260506123743 | 21 | 53 | 0.0 | 2.0 | 0.00 | 0.00 | 0.00 | 79 | 1015.1 |
| 20260506123241 | 21 | 75 | 1.0 | 4.0 | 0.00 | 0.00 | 0.00 | 78 | 1015.0 |
| 20260506122738 | 23 | 90 | 2.0 | 2.0 | 0.00 | 0.00 | 0.00 | 76 | 1015.0 |
| 20260506122235 | 23 | 39 | 3.0 | 3.0 | 0.00 | 0.00 | 0.00 | 75 | 1014.9 |
| 20260506121733 | 23 | 80 | 2.0 | 4.0 | 0.00 | 0.00 | 0.00 | 76 | 1014.7 |
| 20260506121229 | 23 | 107 | 3.0 | 4.0 | 0.00 | 0.00 | 0.00 | 74 | 1014.5 |
| 20260506120727 | 24 | 100 | 4.0 | 5.0 | 0.00 | 0.00 | 0.00 | 74 | 1014.7 |
| 20260506120225 | 23 | 90 | 3.0 | 5.0 | 0.00 | 0.00 | 0.00 | 74 | 1014.5 |
| 20260506115722 | 23 | 97 | 3.0 | 3.0 | 0.00 | 0.00 | 0.00 | 74 | 1014.8 |
| 20260506115220 | 24 | 132 | 3.0 | 5.0 | 0.00 | 0.00 | 0.00 | 73 | 1014.5 |
| 20260506114718 | 24 | 110 | 4.0 | 5.0 | 0.00 | 0.00 | 0.00 | 73 | 1014.7 |
| 20260506114215 | 24 | 127 | 3.0 | 5.0 | 0.00 | 0.00 | 0.00 | 73 | 1014.4 |
| 20260506113713 | 24 | 125 | 4.0 | 5.0 | 0.00 | 0.00 | 0.00 | 73 | 1014.4 |
| 20260506113211 | 24 | 109 | 5.0 | 6.0 | 0.00 | 0.00 | 0.00 | 75 | 1014.5 |
| 20260506112707 | 24 | 107 | 4.0 | 5.0 | 0.00 | 0.00 | 0.00 | 75 | 1014.8 |
| 20260506112205 | 24 | 107 | 5.0 | 6.0 | 0.00 | 0.00 | 0.00 | 73 | 1014.4 |
| 20260506111702 | 25 | 123 | 4.0 | 7.0 | 0.00 | 0.00 | 0.00 | 71 | 1014.4 |
| 20260506111159 | 25 | 103 | 5.0 | 5.0 | 0.00 | 0.00 | 0.00 | 73 | 1014.5 |
| 20260506110656 | 22 | 100 | 3.0 | 4.0 | 0.00 | 0.00 | 0.00 | 77 | 1014.4 |
| 20260506110154 | 24 | 102 | 4.0 | 7.0 | 0.00 | 0.00 | 0.00 | 73 | 1014.3 |
| 20260506105650 | 25 | 121 | 3.0 | 5.0 | 0.00 | 0.00 | 0.00 | 72 | 1014.4 |
| 20260506105147 | 24 | 117 | 3.0 | 8.0 | 0.00 | 0.00 | 0.00 | 74 | 1014.3 |
| 20260506104646 | 26 | 97 | 2.0 | 7.0 | 0.00 | 0.00 | 0.00 | 70 | 1014.4 |
| 20260506104143 | 26 | 117 | 3.0 | 6.0 | 0.00 | 0.00 | 0.00 | 71 | 1014.3 |
| 20260506103640 | 25 | 108 | 4.0 | 6.0 | 0.00 | 0.00 | 0.00 | 71 | 1014.3 |
| 20260506103137 | 24 | 99 | 5.0 | 7.0 | 0.00 | 0.00 | 0.00 | 74 | 1014.4 |
| 20260506102635 | 26 | 112 | 4.0 | 5.0 | 0.00 | 0.00 | 0.00 | 71 | 1014.4 |
| 20260506102132 | 25 | 107 | 4.0 | 9.0 | 0.00 | 0.00 | 0.00 | 72 | 1014.2 |
| 20260506101629 | 25 | 119 | 3.0 | 5.0 | 0.00 | 0.00 | 0.00 | 73 | 1014.3 |
| 20260506101125 | 25 | 113 | 5.0 | 5.0 | 0.00 | 0.00 | 0.00 | 74 | 1014.2 |
| 20260506100624 | 25 | 97 | 2.0 | 4.0 | 0.00 | 0.00 | 0.00 | 74 | 1014.3 |
| 20260506100121 | 25 | 106 | 3.0 | 4.0 | 0.00 | 0.00 | 0.00 | 75 | 1014.2 |
| 20260506095620 | 24 | 115 | 2.0 | 3.0 | 0.00 | 0.00 | 0.00 | 75 | 1014.3 |
| 20260506095116 | 24 | 115 | 2.0 | 4.0 | 0.00 | 0.00 | 0.00 | 76 | 1014.2 |
| 20260506094614 | 24 | 130 | 3.0 | 6.0 | 0.00 | 0.00 | 0.00 | 76 | 1014.3 |